2014 JO57

Initial reported observation by Pan-STARRS 1, Haleakala on 2014-05-07.
(Discoverer will be defined when the object is numbered. See this note on how discoverers are determined.)

Orbit

Orbit type: Mars-crosser

Note: WebGL enabled browser required.

epoch2023-09-13.0
epoch JD2460200.5
perihelion date2023-03-30.06013
perihelion JD2460033.56013
argument of perihelion (°)67.56007
ascending node (°)245.89408
inclination (°)13.00596
eccentricity0.5071639
perihelion distance (AU)1.3149752
Tisserand w.r.t. Jupiter3.2
ΔV w.r.t. Earth (km/sec)8.2
semimajor axis (AU)2.6681796
mean anomaly (°)37.75212
mean daily motion (°/day)0.22614200
aphelion distance (AU)4.021
period (years)4.36
P-vector [x]0.66613074
P-vector [y]-0.73988041
P-vector [z]-0.09405750
Q-vector [x]0.71698675
Q-vector [y]0.60051817
Q-vector [z]0.35398860
absolute magnitude18.25
phase slope0.15
uncertainty1
referenceMPEC 2023-X132
observations used127
oppositions2
arc length (days)3501
first opposition used2014
last opposition used2023
residual rms (arc-secs)0.55
perturbers coarse indicatorM-v
perturbers precise indicator003Ek
first observation date used2014-05-07.0
last observation date used2023-12-07.0
computer nameMPCLINUX
JD of orbit computation2457009.215543
perihelion JD uncertainty (days)6.0124E-05
argument of perihelion uncertainty (°)5.1890E-05
ascending node uncertainty (°)2.8528E-05
inclination uncertainty (°)1.1330E-05
eccentricity uncertainty 1.2839E-06
perihelion distance uncertainty (AU)4.3390E-07
Minimum Orbit Intersection Distances (in AU)
for orbit epoch: 2460200.5, reference: E2023-XD2
Mercury0.91409
Venus0.6357
Earth0.37671
Mars0.10715
Jupiter1.59444
Saturn5.29545
Uranus14.6475
Neptune26.3937

Observations

129 total observations over interval: 2014 05 07.54992 – 2023 12 07.371498
These data are available for download (format description).

